www.pogodaiklimat.ru

Погода и климат >> Архив погоды >> Россия >> Смоленская область >> Рославль


АРХИВ ПОГОДЫ в Рославле

Время (UTC), дата Ветер
(напр.,м/с)
 
Видим.   Явления Облачность Т
(С)
Тd
(С)
f
(%)
Тe
(С)
Тes
(С)
Комфортность P
(гПа)
Po
(гПа)
Тmin
(С)
Tmax
(С)
R
(мм)
R24
(мм)
S
(см)
00 15.07 В 1 13 км слаб. дождь 10/0
[Ac As]
+12.7 +11.3 91 +13 +13 прохладно 1011.0 984.4
03 15.07 В 2 17 км {дождь} 9/3 300 м
[Sc Ac trans]
+12.4 +11.1 92 +11 +12 очень
холодно
1010.5 983.9 +12.2 4
06 15.07 ЮВ 1 20 км {дождь} 10/10 210 м
[St]
+14.3 +12.3 88 +15 +15 холодно 1010.3 983.9 +12.2 4
09 15.07 Ю 1 20 км 10/10 630 м
[Cb calv]
+17.1 +12.1 72 +18 +18 холодно 1010.4 984.2
12 15.07 ЮВ 2 20 км 9/9 600 м
[Sc diur, vesp]
+18.6 +12.3 67 +20 +21 холодно 1009.9 983.9
15 15.07 ЮЗ 1 20 км {ливн. осадки} 9/4 600 м
[Cb cap Ac cuf Ci]
+18.4 +12.4 68 +20 +21 прохладно 1010.1 984.1 0.0
18 15.07 В 1 20 км 9/3 600 м
[Sc diur, vesp Ac und]
+14.4 +10.8 79 +15 +15 холодно 1010.5 984.1 +19.2
21 15.07 В 1 50 км 8/0
[Ac und]
+12.0 +10.5 91 +12 +12 холодно 1010.7 984.1
00 16.07 штиль 0 50 км 9/8 300 м
[Cu Sc Ac As]
+12.2 +10.9 92 +12 +12 прохладно 1010.6 984.0
03 16.07 СВ 1 8000 м слаб. дождь 10/10 360 м
[Frnb Ns]
+12.2 +11.2 94 +12 +12 холодно 1010.0 983.4 +11.5 3
06 16.07 С 1 7000 м дождь 10/10 360 м
[Frnb Ns]
+13.2 +12.1 93 +13 +13 очень
холодно
1009.7 983.2 +11.5 7
09 16.07 СВ 1 9000 м слаб. дождь 10/10 330 м
[Frnb Ns]
+13.6 +12.5 93 +14 +14 очень
холодно
1009.5 983.1
12 16.07 С 2 20 км {дождь} 9/8 600 м
[Cu hum Cc]
+18.3 +12.0 67 +19 +21 холодно 1008.0 982.0
15 16.07 В 1 20 км 8/5 600 м
[Cu med, cong Cs]
+19.9 +11.9 60 +23 +25 комфорт 1007.4 981.6 16
18 16.07 СЗ 1 20 км 4/1 600 м
[Cu med, cong Ac As Ci fib]
+14.7 +11.2 80 +15 +15 холодно 1007.9 981.6 +20.3 12
21 16.07 З 1 50 км 3/0
[Ac As]
+10.3 +8.8 90 +10 +10 очень
холодно
1008.0 981.3
00 17.07 ЮВ 1 30 км 8/0
[Ac trans Ci sp]
+9.5 +8.5 93 +9 +9 холодно 1007.4 980.6
03 17.07 В 1 20 км 9/0
[Ac trans Ci]
+11.1 +10.2 94 +11 +11 очень
холодно
1006.8 980.2 +8.8
06 17.07 В 2 20 км 9/3 600 м
[Cu med, cong Ac trans Cc]
+18.3 +13.4 73 +19 +22 по сезону 1005.2 979.3 +8.8
09 17.07 Ю 1 20 км 9/5 600 м
[Cu med, cong Ac trans Cs]
+20.1 +11.1 56 +23 +28 комфорт 1004.9 979.1
12 17.07 С 2
{15}
4000 м гроза, ливневой дождь 9/8 600 м
[Cb cap Ac cuf]
+12.4 +11.3 93 +11 +13 очень
холодно
1005.6 979.2
15 17.07 В 1 20 км {гроза, ливн. осадки} 9/3 600 м
[Cu med, cong Ac trans Cs]
+14.8 +12.8 88 +15 +17 очень
холодно
1004.8 978.6 9
18 17.07 В 2 20 км {гроза} 9/3 300 м
[St Ac trans]
+13.9 +12.1 89 +13 +13 очень
холодно
1005.3 979.0 +22.1 9
21 17.07 штиль 0 7000 м дымка 9/0
[Ac trans]
+11.6 +10.5 93 +11 +11 очень
холодно
1005.4 978.9
00 18.07 штиль 0 800 м туман ?/? +11.3 +10.4 94 +11 +11 холодно 1005.2 978.6
03 18.07 ЮЗ 1 800 м туман ?/? +11.8 +10.8 94 +12 +12 холодно 1004.7 978.2 +11.0
06 18.07 ЮЗ 1 2000 м дымка {туман} 10/10 270 м
[St]
+13.0 +12.1 94 +13 +13 очень
холодно
1004.8 978.4 +11.0
09 18.07 ЮЗ 3 18 км 9/9 300 м
[Cb cap]
+16.4 +12.1 76 +16 +17 очень
холодно
1004.3 978.2
12 18.07 ЮЗ 2 18 км в посл. час ливневой дождь {гроза} 10/8 600 м
[Cb cap As trans]
+15.1 +13.8 92 +15 +16 очень
холодно
1004.8 978.6
15 18.07 ЮЗ 3 18 км слаб. ливневой дождь 10/10 300 м
[Cb cap]
+14.2 +12.5 90 +13 +13 очень
холодно
1005.0 978.7 7
18 18.07 ЮЗ 5 7000 м слаб. дождь 10/10 330 м
[Frnb Ns]
+13.5 +12.1 91 +11 +11 очень
холодно
1004.7 978.4 +18.5 11
21 18.07 ЮЗ 4 18 км слаб. дождь 10/5 300 м
[Frnb Ac As]
+13.8 +12.6 92 +12 +12 холодно 1004.5 978.2
00 19.07 З 6-10
{10}
25 км {дождь} 9/6 600 м
[Cu hum Ac trans]
+14.4 +12.7 90 +12 +12 прохладно 1004.8 978.5
03 19.07 З 4
{10}
18 км в посл. час дождь 9/5 300 м
[Cu hum Ac trans]
+13.9 +12.5 91 +12 +12 холодно 1006.5 980.2 +13.4 6
06 19.07 З 8 н/о морось {дождь} 10/10 270 м
[St]
+14.8 +13.0 89 +13 +13 очень
холодно
1007.0 980.8 +13.4 2
09 19.07 З 7-13
{13}
20 км {морось} 10/8 300 м
[Cb cap As trans]
+16.5 +12.5 77 +15 +15 очень
холодно
1008.7 982.6
12 19.07 З 8-16
{16}
2700 м ливневой дождь {морось} ясно +14.8 +11.0 78 +13 +15 очень
холодно
1010.5 984.1
15 19.07 СЗ 4
{16}
18 км {ливн. осадки} 9/8 300 м
[Cb cap Ac und]
+18.4 +12.5 68 +19 +19 прохладно 1010.8 984.8 5
18 19.07 З 2
{15}
20 км {ливн. осадки} 8/3 300 м
[Cu Sc Ac und]
+14.9 +13.0 88 +15 +15 холодно 1011.9 985.5 +20.3 8
21 19.07 ЮЗ 3 50 км 9/6 600 м
[Cu Sc Ac und]
+14.2 +11.5 84 +13 +13 холодно 1012.9 986.4
00 20.07 ЮЗ 2 50 км 9/6 600 м
[Sc Ac und]
+13.3 +10.9 85 +13 +13 прохладно 1013.5 986.9
03 20.07 ЮЗ 4 20 км 3/0
[Ac und]
+12.6 +10.8 89 +11 +11 очень
холодно
1014.3 987.6 +12.0 2
06 20.07 З 3 20 км ясно +18.8 +12.3 66 +20 +26 прохладно 1014.5 988.4 +12.0
09 20.07 З 5
{10}
20 км 4/4 600 м
[Cu hum]
+21.3 +11.4 53 +23 +28 комфорт 1015.1 989.2
12 20.07 З 5
{12}
20 км 4/4 600 м
[Cu hum]
+23.4 +8.8 39 +25 +29 комфорт 1015.5 989.7
15 20.07 З 5 20 км 3/3 600 м
[Cu hum]
+23.4 +6.9 35 +24 +25 комфорт 1015.4 989.6
18 20.07 З 2 20 км 1/0
[Ac lent]
+18.7 +9.0 53 +20 +20 прохладно 1016.6 990.4 +23.9
21 20.07 ЮЗ 2 50 км 3/0
[Ac lent]
+14.0 +9.2 73 +14 +14 холодно 1017.7 991.0
00 21.07 ЮЗ 1 50 км ясно +11.8 +9.8 88 +12 +12 прохладно 1018.4 991.5
03 21.07 З 1 20 км 1/0
[Ac lent]
+12.9 +10.1 83 +13 +14 холодно 1018.5 991.7 +10.1
06 21.07 З 2 20 км 3/0
[Ac trans]
+20.8 +10.4 51 +23 +29 комфорт 1018.4 992.3 +10.1
09 21.07 С 2 20 км 4/4 600 м
[Cu med, cong]
+24.0 +9.9 41 +25 +34 комфорт 1018.1 992.3
12 21.07 СЗ 3 20 км 6/4 1000 м
[Cu med, cong Ci fib]
+23.7 +10.1 42 +25 +31 комфорт 1018.0 992.2
15 21.07 СЗ 3 20 км 3/3 1000 м
[Cu med, cong]
+25.0 +9.4 37 +26 +28 жарко 1017.3 991.6
18 21.07 З 1 20 км ясно +19.5 +12.1 62 +22 +22 комфорт 1017.6 991.5 +25.8

 

Местоположение метеостанции Рославль (Смоленская область, Россия): широта 53.93 долгота 32.83 высота над уровнем моря 219 м.

В архиве по умолчанию представлена погода в Рославле за последнюю неделю. Архивные данные за месяц целиком и за предыдущие месяцы, начиная с января 2011 года, Вы можете получить, выбрав интересующий диапазон дат из раскрывающегося списка и нажав кнопку "Ввод!".


*Определитесь, кто Вы:
робот инопланетянин человек

Внимание! Время в таблицах - всемирное. Для получения местного времени необходимо прибавить поправку, которая равна 3 ч.

Смотрите также архив погоды в соседних городах и на ближайших метеорологических станциях:

Погода в Починке (Смоленская область, Россия) (60 км)
Погода в Мстиславле (Могилевская область, Беларусь) (72 км)
Погода в Ельне (Смоленская область, Россия) (75 км)
Погода в Жуковке (Брянская область, Россия) (75 км)
Погода в Костюковичах (Могилевская область, Беларусь) (82 км)
Погода в Спас-Деменске (Калужская область, Россия) (95 км)
Погода в Смоленске (Смоленская область, Россия) (104 км)
Погода в Унече (Брянская область, Россия) (123 км)
Погода в Брянске (Брянская область, Россия) (124 км)
Погода в Жиздре (Калужская область, Россия) (126 км)

Пояснения к столбцам:

Ветер - указаны скорость ветра в м/с - средняя за 10 мин, порывы в срок и между сроками (в фигурных скобках) и направление, откуда дует ветер: С - северный, СВ - северо-восточный, В - восточный, ЮВ - юго-восточный, Ю - южный, ЮЗ - юго-западный, З - западный, СЗ - северо-западный.
Видимость - горизонтальная дальность видимости в метрах или километрах. При видимости от 1 до 10 км при отсутствии осадков обычно наблюдается дымка, при ухудшении видимости до 1 км и менее - туман. В сухую погоду видимость может ухудшаться дымом, пылью или мглою.
Явления - указаны атмосферные явления, наблюдавшиеся в срок или в последний час перед сроком; фигурными скобками обозначены явления, наблюдавшиеся между сроками (за 1-3 часа до срока); квадратными скобками обозначены град или гололедные отложения с указанием их диаметра в мм.
Облачность - указаны через наклонную черту общая и нижняя облачность в баллах и высота нижней границы облаков в метрах; квадратными скобками обозначены формы облаков: Ci - перистые, Cs - перисто-слоистые, Cc - перисто-кучевые, Ac - высококучевые, As - высокослоистые, Sc - слоисто-кучевые, Ns - слоисто-дождевые, Cu - кучевые, Cb - кучево-дождевые. Подробнее классификацию облаков см. в Атласе облаков (PDF).
T - Температура воздуха - температура, измеренная на высоте 2 м над землей.
Td - Температура точки росы - температура, при понижении до которой содержащийся в воздухе водяной пар достигнет насыщения.
f - Относительная влажность воздуха - влажноcть воздуха, измеренная на высоте 2 м над землей.
Te - Эффективная температура - температура, которую ощущает одетый по сезону человек в тени. Характеристика душности погоды. При расчете учитывается влияние влажности воздуха и скорости ветра на теплоощущения человека.
Tes - Эффективная температура на солнце - температура, которую ощущает человек, с поправкой на солнечный нагрев. Характеристика знойности погоды. Зависит от высоты солнца над горизонтом, облачности и скорости ветра. Ночью, в пасмурную погоду, а также при ветре 12 м/с и более поправка равна нулю.
P - Атмосферное давление - приведенное к уровню моря атмосферное давление.
Po - Атмосферное давление - измеренное на уровне метеостанции атмосферное давление.
Tmin - Минимальная температура - минимум температуры воздуха на высоте 2 м над землей.
Tmax - Максимальная температура - максимум температуры воздуха на высоте 2 м над землей.
R - Количество осадков - Количество выпавших осадков за период времени, мм. При наведении курсора мыши на число - период времени, за который выпало указанное количество осадков.
R24 - Количество осадков - Количество выпавших осадков за 24 часа, мм.
S - Снежный покров - Высота снежного покрова, см. При наведении курсора мыши на число - состояние снежного покрова и степень покрытия местности в баллах.